Time,TemperatureF,DewpointF,PressureIn,WindDirection,WindDirectionDegrees,WindSpeedMPH,WindSpeedGustMPH,Humidity,HourlyPrecipIn,Conditions,Clouds,dailyrainin,SolarRadiationWatts/m^2,SoftwareType,DateUTC
2013-09-20 00:13:00,64.0,63.0,-100.00,SW,227,1.0,6.0,98,0.00,,,0.37,0.000000,,2013-09-20 05:13:00,
2013-09-20 00:23:00,64.0,63.0,-100.00,SW,227,1.0,6.0,98,0.00,,,0.37,0.000000,,2013-09-20 05:23:00,
2013-09-20 00:34:00,64.0,63.0,-100.00,SW,227,1.0,6.0,98,0.00,,,0.37,0.000000,,2013-09-20 05:34:00,
2013-09-20 01:12:00,64.0,63.0,-100.00,WSW,256,1.0,6.0,98,0.00,,,0.37,0.000000,,2013-09-20 06:12:00,
2013-09-20 01:22:00,64.0,63.0,-100.00,WSW,256,1.0,6.0,98,0.00,,,0.37,0.000000,,2013-09-20 06:22:00,
2013-09-20 01:33:00,64.0,63.0,-100.00,WSW,256,1.0,6.0,98,0.00,,,0.37,0.000000,,2013-09-20 06:33:00,
2013-09-20 02:12:00,64.0,63.0,-100.00,SW,222,1.0,3.0,98,0.00,,,0.37,0.000000,,2013-09-20 07:12:00,
2013-09-20 02:23:00,64.0,63.0,-100.00,SW,222,1.0,3.0,98,0.00,,,0.37,0.000000,,2013-09-20 07:23:00,
2013-09-20 02:32:00,64.0,63.0,-100.00,SW,222,1.0,3.0,98,0.00,,,0.37,0.000000,,2013-09-20 07:32:00,
2013-09-20 03:11:00,64.0,64.0,-100.00,SW,218,1.0,4.0,99,0.00,,,0.37,0.000000,,2013-09-20 08:11:00,
2013-09-20 03:22:00,64.0,64.0,-100.00,SW,218,1.0,4.0,99,0.00,,,0.37,0.000000,,2013-09-20 08:22:00,
2013-09-20 03:32:00,64.0,64.0,-100.00,SW,218,1.0,4.0,99,0.00,,,0.37,0.000000,,2013-09-20 08:32:00,
2013-09-20 04:12:00,64.0,63.0,-100.00,SW,227,2.0,5.0,98,0.02,,,0.39,0.000000,,2013-09-20 09:12:00,
2013-09-20 04:22:00,64.0,63.0,-100.00,SW,227,2.0,5.0,98,0.02,,,0.39,0.000000,,2013-09-20 09:22:00,
2013-09-20 04:33:00,64.0,63.0,-100.00,SW,227,2.0,5.0,98,0.02,,,0.39,0.000000,,2013-09-20 09:33:00,
2013-09-20 05:13:00,64.0,64.0,-100.00,WSW,245,2.0,5.0,99,0.00,,,0.39,0.000000,,2013-09-20 10:13:00,
2013-09-20 05:23:00,64.0,64.0,-100.00,WSW,245,2.0,5.0,99,0.00,,,0.39,0.000000,,2013-09-20 10:23:00,
2013-09-20 05:32:00,64.0,64.0,-100.00,WSW,245,2.0,5.0,99,0.00,,,0.39,0.000000,,2013-09-20 10:32:00,
2013-09-20 06:12:00,64.0,63.0,-100.00,WNW,286,2.0,5.0,97,0.00,,,0.39,0.000000,,2013-09-20 11:12:00,
2013-09-20 06:23:00,64.0,63.0,-100.00,WNW,286,2.0,5.0,97,0.00,,,0.39,0.000000,,2013-09-20 11:23:00,
2013-09-20 06:33:00,64.0,63.0,-100.00,WNW,286,2.0,5.0,97,0.00,,,0.39,0.000000,,2013-09-20 11:33:00,
2013-09-20 07:12:00,63.0,62.0,-100.00,WNW,287,1.0,5.0,98,0.00,,,0.39,0.000000,,2013-09-20 12:12:00,
2013-09-20 07:22:00,63.0,62.0,-100.00,WNW,287,1.0,5.0,98,0.00,,,0.39,0.000000,,2013-09-20 12:22:00,
2013-09-20 07:32:00,63.0,62.0,-100.00,WNW,287,1.0,5.0,98,0.00,,,0.39,0.000000,,2013-09-20 12:32:00,
2013-09-20 08:12:00,63.0,62.0,-100.00,NW,310,3.0,9.0,97,0.02,,,0.41,4.000000,,2013-09-20 13:12:00,
2013-09-20 08:21:00,63.0,62.0,-100.00,NW,310,3.0,9.0,97,0.02,,,0.41,4.000000,,2013-09-20 13:21:00,
2013-09-20 08:32:00,63.0,62.0,-100.00,NW,310,3.0,9.0,97,0.02,,,0.41,4.000000,,2013-09-20 13:32:00,
2013-09-20 09:11:00,62.0,60.0,-100.00,WNW,284,4.0,14.0,94,0.00,,,0.41,81.000000,,2013-09-20 14:11:00,
2013-09-20 09:21:00,62.0,60.0,-100.00,WNW,284,4.0,14.0,94,0.00,,,0.41,81.000000,,2013-09-20 14:21:00,
2013-09-20 09:32:00,62.0,60.0,-100.00,WNW,284,4.0,14.0,94,0.00,,,0.41,81.000000,,2013-09-20 14:32:00,
2013-09-20 10:12:00,63.0,61.0,-100.00,NNW,328,1.0,5.0,94,0.00,,,0.41,105.000000,,2013-09-20 15:12:00,
2013-09-20 10:22:00,63.0,61.0,-100.00,NNW,328,1.0,5.0,94,0.00,,,0.41,105.000000,,2013-09-20 15:22:00,
2013-09-20 10:33:00,63.0,61.0,-100.00,NNW,328,1.0,5.0,94,0.00,,,0.41,105.000000,,2013-09-20 15:33:00,
2013-09-20 11:13:00,64.0,59.0,-100.00,NW,304,6.0,11.0,85,0.00,,,0.41,271.000000,,2013-09-20 16:13:00,
2013-09-20 11:23:00,64.0,59.0,-100.00,NW,304,6.0,11.0,85,0.00,,,0.41,271.000000,,2013-09-20 16:23:00,
2013-09-20 12:13:00,64.0,57.0,-100.00,NNW,328,6.0,13.0,78,0.00,,,0.41,307.000000,,2013-09-20 17:13:00,
2013-09-20 12:24:00,64.0,57.0,-100.00,NNW,328,6.0,13.0,78,0.00,,,0.41,307.000000,,2013-09-20 17:24:00,
2013-09-20 12:34:00,64.0,57.0,-100.00,NNW,328,6.0,13.0,78,0.00,,,0.41,307.000000,,2013-09-20 17:34:00,
2013-09-20 13:12:00,68.0,55.0,-100.00,West,265,7.0,17.0,63,0.00,,,0.41,626.000000,,2013-09-20 18:12:00,
2013-09-20 13:22:00,68.0,55.0,-100.00,West,265,7.0,17.0,63,0.00,,,0.41,626.000000,,2013-09-20 18:22:00,
2013-09-20 13:32:00,68.0,55.0,-100.00,West,265,7.0,17.0,63,0.00,,,0.41,626.000000,,2013-09-20 18:32:00,
2013-09-20 14:12:00,63.0,54.0,-100.00,NW,317,6.0,15.0,72,0.04,,,0.45,620.000000,,2013-09-20 19:12:00,
2013-09-20 14:22:00,63.0,54.0,-100.00,NW,317,6.0,15.0,72,0.04,,,0.45,620.000000,,2013-09-20 19:22:00,
2013-09-20 14:32:00,63.0,54.0,-100.00,NW,317,6.0,15.0,72,0.04,,,0.45,620.000000,,2013-09-20 19:32:00,
2013-09-20 15:12:00,62.0,57.0,-100.00,NW,311,4.0,11.0,85,0.14,,,0.59,327.000000,,2013-09-20 20:12:00,
2013-09-20 15:22:00,62.0,57.0,-100.00,NW,311,4.0,11.0,85,0.14,,,0.59,327.000000,,2013-09-20 20:22:00,
2013-09-20 15:32:00,62.0,57.0,-100.00,NW,311,4.0,11.0,85,0.14,,,0.59,327.000000,,2013-09-20 20:32:00,
2013-09-20 16:12:00,59.0,54.0,-100.00,NNW,343,7.0,19.0,85,0.00,,,0.54,184.000000,,2013-09-20 21:12:00,
2013-09-20 16:21:00,59.0,54.0,-100.00,NNW,343,7.0,19.0,85,0.00,,,0.54,184.000000,,2013-09-20 21:21:00,
2013-09-20 16:34:00,59.0,54.0,-100.00,NNW,343,7.0,19.0,85,0.00,,,0.54,184.000000,,2013-09-20 21:34:00,
2013-09-20 17:14:00,56.0,52.0,-100.00,NNW,332,7.0,15.0,88,0.00,,,0.27,170.000000,,2013-09-20 22:14:00,
2013-09-20 17:23:00,56.0,52.0,-100.00,NNW,332,7.0,15.0,88,0.00,,,0.27,170.000000,,2013-09-20 22:23:00,
2013-09-20 17:33:00,56.0,52.0,-100.00,NNW,332,7.0,15.0,88,0.00,,,0.27,170.000000,,2013-09-20 22:33:00,
2013-09-20 18:13:00,55.0,50.0,-100.00,NNW,333,6.0,13.0,84,0.00,,,0.27,129.000000,,2013-09-20 23:13:00,
2013-09-20 18:22:00,55.0,50.0,-100.00,NNW,333,6.0,13.0,84,0.00,,,0.27,129.000000,,2013-09-20 23:22:00,
2013-09-20 18:34:00,55.0,50.0,-100.00,NNW,333,6.0,13.0,84,0.00,,,0.27,129.000000,,2013-09-20 23:34:00,
2013-09-20 19:11:00,54.0,51.0,-100.00,NNW,344,5.0,10.0,88,0.00,,,0.27,51.000000,,2013-09-21 00:11:00,
2013-09-20 19:21:00,54.0,51.0,-100.00,NNW,344,5.0,10.0,88,0.00,,,0.27,51.000000,,2013-09-21 00:21:00,
2013-09-20 19:32:00,54.0,51.0,-100.00,NNW,344,5.0,10.0,88,0.00,,,0.27,51.000000,,2013-09-21 00:32:00,
2013-09-20 20:12:00,53.0,50.0,-100.00,NNW,327,3.0,7.0,90,0.00,,,0.27,3.000000,,2013-09-21 01:12:00,
2013-09-20 20:22:00,53.0,50.0,-100.00,NNW,327,3.0,7.0,90,0.00,,,0.27,3.000000,,2013-09-21 01:22:00,
2013-09-20 20:32:00,53.0,50.0,-100.00,NNW,327,3.0,7.0,90,0.00,,,0.27,3.000000,,2013-09-21 01:32:00,
2013-09-20 21:12:00,52.0,49.0,-100.00,NNW,327,3.0,8.0,89,0.00,,,0.22,0.000000,,2013-09-21 02:12:00,
2013-09-20 21:22:00,52.0,49.0,-100.00,NNW,327,3.0,8.0,89,0.00,,,0.22,0.000000,,2013-09-21 02:22:00,
2013-09-20 21:32:00,52.0,49.0,-100.00,NNW,327,3.0,8.0,89,0.00,,,0.22,0.000000,,2013-09-21 02:32:00,
2013-09-20 22:12:00,50.0,47.0,-100.00,NNW,347,6.0,12.0,90,0.00,,,0.22,0.000000,,2013-09-21 03:12:00,
2013-09-20 22:22:00,50.0,47.0,-100.00,NNW,347,6.0,12.0,90,0.00,,,0.22,0.000000,,2013-09-21 03:22:00,
2013-09-20 22:34:00,50.0,47.0,-100.00,NNW,347,6.0,12.0,90,0.00,,,0.22,0.000000,,2013-09-21 03:34:00,
2013-09-20 23:14:00,48.0,46.0,-100.00,NW,319,1.0,7.0,93,0.00,,,0.22,0.000000,,2013-09-21 04:14:00,
2013-09-20 23:24:00,48.0,46.0,-100.00,NW,319,1.0,7.0,93,0.00,,,0.22,0.000000,,2013-09-21 04:24:00,
2013-09-20 23:33:00,48.0,46.0,-100.00,NW,319,1.0,7.0,93,0.00,,,0.22,0.000000,,2013-09-21 04:33:00,